Regional Weather Roundup
Issued by NWS Lake Charles, LA

Home | Current Version | Previous Version | Text Only | Print | Product List | Glossary On
Versions: 1 2 3 4 5 6 7 8 9 10 11 12 13 14 15 16 17 18 19 20 21 22 23 24 25 26 27 28 29 30 31 32 33 34 35 36 37 38 39 40 41 42 43 44 45 46 47 48 49 50
000
ASUS44 KLCH 111110
RWRLCH
REGIONAL WEATHER ROUNDUP
NATIONAL WEATHER SERVICE LAKE CHARLES LA
500 AM CST THU FEB 11 2016

Note: "fair" indicates few or no clouds below 12,000 feet with no
significant weather and/or obstructions to visibility.


ACROSS SOUTHEAST TEXAS

CITY           SKY/WX    TMP DP  RH WIND       PRES   REMARKS
BEAUMONT       CLEAR     51  50  96 SW5       30.17S
BEAUMONT CITY  FAIR      53  50  91 SW7       30.17S
ORANGE         SUNNY     56  52  84 SW7       30.19R
JASPER         PTCLDY    44  44  99 S5        30.17S FOG
$$

ACROSS CENTRAL LOUISIANA

CITY           SKY/WX    TMP DP  RH WIND       PRES   REMARKS
LEESVILLE      CLEAR     50  50 100 SW8       30.14S FOG
FULLERTON      FAIR      50  47  89 VRB6      30.12S
ALEXANDRIA INT CLEAR     48  47  96 SW5       30.13R
ESLER FIELD    CLEAR     54  48  80 SW13      30.13S
DERIDDER         N/A     49  48  95 SW6       30.17S
OAKDALE          N/A     49  49  97 S3        30.16S
OPELOUSAS      FAIR      49  48  95 SW6       30.17S
$$

ACROSS SOUTHWEST AND SOUTH CENTRAL LOUISIANA

CITY           SKY/WX    TMP DP  RH WIND       PRES   REMARKS
SULPHUR        FOG       50  50  99 MISG      30.18S VSB 3/4
LAKE CHARLES   CLEAR     54  52  93 SW6       30.17S
CHENNAULT INT  NOT AVBL
CAMERON PHI    SUNNY     57  57 100 SW9       30.21S
DEQUINCY       FAIR      42  42 100 CALM      30.17S
JENNINGS       FAIR      52  52 100 SW3       30.18S
LAFAYETTE      CLEAR     49  46  90 S5        30.18S
NEW IBERIA     CLEAR     45  44  97 S6        30.19S
ABBEVILLE      FAIR      52  51  96 SW6       30.19R
PATTERSON      CLEAR     45  43  93 SW6       30.21S
SALT POINT       N/A     52  50  93 CALM      30.19S
$$

SELECTED SITES ACROSS THE REGION

CITY           SKY/WX    TMP DP  RH WIND       PRES   REMARKS
HOUSTON BUSH   CLEAR     57  48  72 SW8       30.17R
HOUSTON HOBBY  CLEAR     56  51  84 SW8       30.17S
GALVESTON      CLEAR     57  56  96 SW9       30.19S
COLLEGE STAT   CLEAR     51  40  65 S8        30.14S
CONROE         PTCLDY    53  46  77 SW7       30.17R
HUNTSVILLE     PTCLDY    57  39  51 SW13G20   30.13S
LUFKIN         PTCLDY    44  41  89 CALM      30.12S
SHREVEPORT     CLEAR     53  39  59 SW14      30.05S
MONROE         CLEAR     45  32  60 SW9       30.08S
NATCHEZ MS     CLEAR     52  45  76 SW12G21   30.14R
BATON ROUGE    PTCLDY    50  45  83 SW9       30.18R
N.O. INTL ARPT CLEAR     46  40  79 S7        30.20S
SLIDELL        PTCLDY    48  42  80 SW8       30.20S
$$

MARINE REPORTS

STATION/POSITION TIME  SKY/WX   TEMP    WIND        PRES    VSBY
                                AIR SEA DIR/SP/G
                 (UTC)          (F)     (DEG/KT/KT) (MB)    (MI)
BUOY 30 S HIGH I 1050            60 58  240/ 10/ 12 1022.0R
WVE H/P(F/S)=  3/ 5

SEA RIM ST PARK  1100            59     240/  9/ 11 1022.3R
PORT ARTHUR      1000               54  230/ 10/ 12 1021.6F
SABINE PASS N    1000            57                   N/A
TEXAS POINT      NOT AVBL
CALCASIEU PASS   1000            59                   N/A
LK CHARLES BEACH 1000            57                   N/A
MARSH ISLAND     NOT AVBL
FRESH WATER LOCK 1000            58                   N/A
AMERADA PASS     1000            53                   N/A
$$



USA.gov is the U.S. government's official web portal to all federal, state and local government web resources and services.